Flag for Mexico Weather past 2 weeks in Querétaro, Querétaro, Mexico

Now
59 °F

Mostly cloudy.


Feels Like: 58 °F
Forecast: 56 / 81 °F
Wind: 6 mph from Northeast

Location: Queretaro - Qro.

Current Time: Jul 30, 2014 at 9:13:03 AM

Latest Report: Jul 30, 2014 at 7:45 AM


Visibility: 5 mi

Pressure: 30.38 "Hg

Humidity: 88%

Dew point: 55 °F

Location of QuerétaroLocation

Historic Weather in Querétaro — Graph

°F

Querétaro temperature yesterday

Maximum temperature yesterday: 82 °F (at 3:47 PM)
Minimum temperature yesterday: 54 °F (at 6:45 AM)
Average temperature yesterday: 67 °F

Past Weeks' High & Low Weather Summary

 TemperatureHumidityPressure
High86 °F (Jul 20, 4:45 PM)94% (Jul 17, 7:45 AM)30.44 "Hg (Jul 17, 7:45 AM)
Low54 °F (Jul 21, 6:45 AM)22% (Jul 20, 4:45 PM)30.21 "Hg (Jul 17, 5:45 PM)
Average67 °F65%30.34 "Hg
* Reported Jul 15 6:45 AM — Jul 30 6:45 AM, Querétaro, Weather by CustomWeather, © 2014

Note: Actual official high and low records may vary slightly from our data, if they occured in-between our weather recording intervals... More about our weather records

Advertising

Querétaro weather history for previous 24 hours

 ConditionsComfort  
Time TempWeatherWind HumidityBarometerVisibility
6:45 AM
Jul 30
59 °FPartly cloudy.No wind88%30.37 "Hg7 mi
5:45 AM59 °FPassing clouds.6 mph88%30.37 "Hg7 mi
4:45 AM59 °FPartly cloudy.6 mph88%30.38 "Hg8 mi
2:45 AM61 °FPartly cloudy.6 mph77%30.38 "Hg10 mi
12:45 AMN/APartly cloudy.6 mphN/A30.40 "Hg10 mi
11:45 PM
Jul 29
64 °FPartly cloudy.10 mph68%30.40 "Hg10 mi
10:45 PM66 °FPartly cloudy.14 mph64%30.37 "Hg10 mi
9:45 PM66 °FPartly cloudy.16 mph52%30.33 "Hg10 mi
8:50 PM68 °FBroken clouds.14 mph60%30.29 "Hg7 mi
7:50 PM72 °FBroken clouds.14 mph53%30.27 "Hg8 mi
5:45 PM81 °FBroken clouds.16 mph37%30.27 "Hg14 mi
4:45 PM82 °FBroken clouds.12 mph35%30.29 "Hg14 mi
3:47 PM82 °FBroken clouds.6 mph32%30.31 "Hg14 mi
2:45 PM81 °FBroken clouds.10 mph34%30.34 "Hg14 mi
1:45 PM79 °FBroken clouds.7 mph37%30.37 "Hg12 mi
12:45 PM75 °FScattered clouds.6 mph44%30.39 "Hg10 mi
11:45 AM72 °FPassing clouds.2 mph53%30.39 "Hg8 mi
10:45 AM66 °FScattered clouds.10 mph68%30.41 "Hg6 mi
9:45 AM63 °FPartly sunny.10 mph77%30.41 "Hg6 mi
Weather by CustomWeather, © 2014

See weather overviewHow to use our weather pages